Year,Month,Day,Hour,Minute,Value (Times are PST for temperature in C)
2014,11,10,00,00,7.20
2014,11,10,00,01,7.20
2014,11,10,00,02,7.20
2014,11,10,00,03,7.10
2014,11,10,00,04,7.10
2014,11,10,00,05,7.10
2014,11,10,00,06,7.10
2014,11,10,00,07,7.10
2014,11,10,00,08,7.10
2014,11,10,00,09,7.00
2014,11,10,00,10,7.00
2014,11,10,00,11,7.00
2014,11,10,00,12,6.90
2014,11,10,00,13,6.90
2014,11,10,00,14,6.90
2014,11,10,00,15,6.90
2014,11,10,00,16,6.80
2014,11,10,00,17,6.80
2014,11,10,00,18,6.70
2014,11,10,00,19,6.70
2014,11,10,00,20,6.70
2014,11,10,00,21,6.70
2014,11,10,00,22,6.70
2014,11,10,00,23,6.70
2014,11,10,00,24,6.60
2014,11,10,00,25,6.60
2014,11,10,00,26,6.60
2014,11,10,00,27,6.60
2014,11,10,00,28,6.50
2014,11,10,00,29,6.50
2014,11,10,00,30,6.50
2014,11,10,00,31,6.40
2014,11,10,00,32,6.40
2014,11,10,00,33,6.40
2014,11,10,00,34,6.40
2014,11,10,00,35,6.30
2014,11,10,00,36,6.30
2014,11,10,00,37,6.30
2014,11,10,00,38,6.30
2014,11,10,00,39,6.30
2014,11,10,00,40,6.30
2014,11,10,00,41,6.30
2014,11,10,00,42,6.30
2014,11,10,00,43,6.30
2014,11,10,00,44,6.30
2014,11,10,00,45,6.30
2014,11,10,00,46,6.20
2014,11,10,00,47,6.20
2014,11,10,00,48,6.20
2014,11,10,00,49,6.20
2014,11,10,00,50,6.20
2014,11,10,00,51,6.20
2014,11,10,00,52,6.20
2014,11,10,00,53,6.20
2014,11,10,00,54,6.10
2014,11,10,00,55,6.10
2014,11,10,00,56,6.10
2014,11,10,00,57,6.10
2014,11,10,00,58,6.10
2014,11,10,00,59,6.10
2014,11,10,01,00,6.10
2014,11,10,01,01,6.10
2014,11,10,01,02,6.10
2014,11,10,01,03,6.10
2014,11,10,01,04,6.10
2014,11,10,01,05,6.10
2014,11,10,01,06,6.10
2014,11,10,01,07,6.20
2014,11,10,01,08,6.20
2014,11,10,01,09,6.20
2014,11,10,01,10,6.20
2014,11,10,01,11,6.10
2014,11,10,01,12,6.10
2014,11,10,01,13,6.10
2014,11,10,01,14,6.10
2014,11,10,01,15,6.10
2014,11,10,01,16,6.10
2014,11,10,01,17,6.10
2014,11,10,01,18,6.00
2014,11,10,01,19,6.00
2014,11,10,01,20,6.00
2014,11,10,01,21,6.00
2014,11,10,01,22,6.00
2014,11,10,01,23,6.00
2014,11,10,01,24,5.90
2014,11,10,01,25,5.90
2014,11,10,01,26,5.90
2014,11,10,01,27,5.90
2014,11,10,01,28,5.90
2014,11,10,01,29,5.80
2014,11,10,01,30,5.80
2014,11,10,01,31,5.80
2014,11,10,01,32,5.80
2014,11,10,01,33,5.80
2014,11,10,01,34,5.80
2014,11,10,01,35,5.80
2014,11,10,01,36,5.80
2014,11,10,01,37,5.80
2014,11,10,01,38,5.80
2014,11,10,01,39,5.80
2014,11,10,01,40,5.80
2014,11,10,01,41,5.80
2014,11,10,01,42,5.70
2014,11,10,01,43,5.70
2014,11,10,01,44,5.70
2014,11,10,01,45,5.70
2014,11,10,01,46,5.70
2014,11,10,01,47,5.70
2014,11,10,01,48,5.70
2014,11,10,01,49,5.70
2014,11,10,01,50,5.60
2014,11,10,01,51,5.60
2014,11,10,01,52,5.60
2014,11,10,01,53,5.60
2014,11,10,01,54,5.60
2014,11,10,01,55,5.60
2014,11,10,01,56,5.60
2014,11,10,01,57,5.60
2014,11,10,01,58,5.70
2014,11,10,01,59,5.60
2014,11,10,02,00,5.60
2014,11,10,02,01,5.60
2014,11,10,02,02,5.60
2014,11,10,02,03,5.60
2014,11,10,02,04,5.60
2014,11,10,02,05,5.60
2014,11,10,02,06,5.60
2014,11,10,02,07,5.60
2014,11,10,02,08,5.60
2014,11,10,02,09,5.60
2014,11,10,02,10,5.60
2014,11,10,02,11,5.60
2014,11,10,02,12,5.60
2014,11,10,02,13,5.60
2014,11,10,02,14,5.60
2014,11,10,02,15,5.60
2014,11,10,02,16,5.60
2014,11,10,02,17,5.50
2014,11,10,02,18,5.50
2014,11,10,02,19,5.50
2014,11,10,02,20,5.40
2014,11,10,02,21,5.40
2014,11,10,02,22,5.50
2014,11,10,02,23,5.50
2014,11,10,02,24,5.60
2014,11,10,02,25,5.60
2014,11,10,02,26,5.60
2014,11,10,02,27,5.50
2014,11,10,02,28,5.50
2014,11,10,02,29,5.50
2014,11,10,02,30,5.50
2014,11,10,02,31,5.50
2014,11,10,02,32,5.50
2014,11,10,02,33,5.50
2014,11,10,02,34,5.50
2014,11,10,02,35,5.40
2014,11,10,02,36,5.40
2014,11,10,02,37,5.40
2014,11,10,02,38,5.40
2014,11,10,02,39,5.40
2014,11,10,02,40,5.40
2014,11,10,02,41,5.40
2014,11,10,02,42,5.40
2014,11,10,02,43,5.40
2014,11,10,02,44,5.40
2014,11,10,02,45,5.40
2014,11,10,02,46,5.40
2014,11,10,02,47,5.40
2014,11,10,02,48,5.40
2014,11,10,02,49,5.30
2014,11,10,02,50,5.30
2014,11,10,02,51,5.30
2014,11,10,02,52,5.30
2014,11,10,02,53,5.30
2014,11,10,02,54,5.30
2014,11,10,02,55,5.30
2014,11,10,02,56,5.30
2014,11,10,02,57,5.30
2014,11,10,02,58,5.30
2014,11,10,02,59,5.40
2014,11,10,03,00,5.40
2014,11,10,03,01,5.40
2014,11,10,03,02,5.40
2014,11,10,03,03,5.40
2014,11,10,03,04,5.40
2014,11,10,03,05,5.40
2014,11,10,03,06,5.40
2014,11,10,03,07,5.40
2014,11,10,03,08,5.40
2014,11,10,03,09,5.40
2014,11,10,03,10,5.40
2014,11,10,03,11,5.40
2014,11,10,03,12,5.40
2014,11,10,03,13,5.40
2014,11,10,03,14,5.40
2014,11,10,03,15,5.40
2014,11,10,03,16,5.50
2014,11,10,03,17,5.50
2014,11,10,03,18,5.50
2014,11,10,03,19,5.60
2014,11,10,03,20,5.60
2014,11,10,03,21,5.60
2014,11,10,03,22,5.60
2014,11,10,03,23,5.70
2014,11,10,03,24,5.70
2014,11,10,03,25,5.80
2014,11,10,03,26,5.80
2014,11,10,03,27,5.80
2014,11,10,03,28,5.90
2014,11,10,03,29,5.90
2014,11,10,03,30,5.90
2014,11,10,03,31,5.90
2014,11,10,03,32,5.90
2014,11,10,03,33,5.90
2014,11,10,03,34,5.90
2014,11,10,03,35,5.90
2014,11,10,03,36,5.90
2014,11,10,03,37,5.90
2014,11,10,03,38,5.90
2014,11,10,03,39,5.90
2014,11,10,03,40,5.90
2014,11,10,03,41,5.80
2014,11,10,03,42,5.80
2014,11,10,03,43,5.80
2014,11,10,03,44,5.80
2014,11,10,03,45,5.80
2014,11,10,03,46,5.80
2014,11,10,03,47,5.80
2014,11,10,03,48,5.90
2014,11,10,03,49,5.90
2014,11,10,03,50,5.90
2014,11,10,03,51,6.00
2014,11,10,03,52,6.00
2014,11,10,03,53,6.10
2014,11,10,03,54,6.10
2014,11,10,03,55,6.10
2014,11,10,03,56,6.20
2014,11,10,03,57,6.20
2014,11,10,03,58,6.30
2014,11,10,03,59,6.30
2014,11,10,04,00,6.40
2014,11,10,04,01,6.50
2014,11,10,04,02,6.50
2014,11,10,04,03,6.60
2014,11,10,04,04,6.60
2014,11,10,04,05,6.60
2014,11,10,04,06,6.70
2014,11,10,04,07,6.70
2014,11,10,04,08,6.70
2014,11,10,04,09,6.70
2014,11,10,04,10,6.70
2014,11,10,04,11,6.60
2014,11,10,04,12,6.50
2014,11,10,04,13,6.40
2014,11,10,04,14,6.40
2014,11,10,04,15,6.30
2014,11,10,04,16,6.30
2014,11,10,04,17,6.30
2014,11,10,04,18,6.30
2014,11,10,04,19,6.30
2014,11,10,04,20,6.40
2014,11,10,04,21,6.40
2014,11,10,04,22,6.50
2014,11,10,04,23,6.50
2014,11,10,04,24,6.60
2014,11,10,04,25,6.60
2014,11,10,04,26,6.70
2014,11,10,04,27,6.70
2014,11,10,04,28,6.70
2014,11,10,04,29,6.60
2014,11,10,04,30,6.60
2014,11,10,04,31,6.50
2014,11,10,04,32,6.40
2014,11,10,04,33,6.40
2014,11,10,04,34,6.30
2014,11,10,04,35,6.30
2014,11,10,04,36,6.30
2014,11,10,04,37,6.40
2014,11,10,04,38,6.40
2014,11,10,04,39,6.40
2014,11,10,04,40,6.40
2014,11,10,04,41,6.50
2014,11,10,04,42,6.50
2014,11,10,04,43,6.60
2014,11,10,04,44,6.60
2014,11,10,04,45,6.60
2014,11,10,04,46,6.70
2014,11,10,04,47,6.60
2014,11,10,04,48,6.60
2014,11,10,04,49,6.50
2014,11,10,04,50,6.50
2014,11,10,04,51,6.40
2014,11,10,04,52,6.30
2014,11,10,04,53,6.30
2014,11,10,04,54,6.20
2014,11,10,04,55,6.10
2014,11,10,04,56,5.90
2014,11,10,04,57,5.80
2014,11,10,04,58,5.80
2014,11,10,04,59,5.70
2014,11,10,05,00,5.70
2014,11,10,05,01,5.70
2014,11,10,05,02,5.70
2014,11,10,05,03,5.70
2014,11,10,05,04,5.70
2014,11,10,05,05,5.70
2014,11,10,05,06,5.70
2014,11,10,05,07,5.60
2014,11,10,05,08,5.60
2014,11,10,05,09,5.60
2014,11,10,05,10,5.50
2014,11,10,05,11,5.50
2014,11,10,05,12,5.50
2014,11,10,05,13,5.40
2014,11,10,05,14,5.40
2014,11,10,05,15,5.40
2014,11,10,05,16,5.40
2014,11,10,05,17,5.40
2014,11,10,05,18,5.40
2014,11,10,05,19,5.40
2014,11,10,05,20,5.50
2014,11,10,05,21,5.50
2014,11,10,05,22,5.50
2014,11,10,05,23,5.60
2014,11,10,05,24,5.60
2014,11,10,05,25,5.60
2014,11,10,05,26,5.70
2014,11,10,05,27,5.70
2014,11,10,05,28,5.70
2014,11,10,05,29,5.70
2014,11,10,05,30,5.70
2014,11,10,05,31,5.70
2014,11,10,05,32,5.70
2014,11,10,05,33,5.70
2014,11,10,05,34,5.70
2014,11,10,05,35,5.70
2014,11,10,05,36,5.70
2014,11,10,05,37,5.70
2014,11,10,05,38,5.70
2014,11,10,05,39,5.70
2014,11,10,05,40,5.70
2014,11,10,05,41,5.70
2014,11,10,05,42,5.70
2014,11,10,05,43,5.70
2014,11,10,05,44,5.70
2014,11,10,05,45,5.60
2014,11,10,05,46,5.50
2014,11,10,05,47,5.40
2014,11,10,05,48,5.30
2014,11,10,05,49,5.20
2014,11,10,05,50,5.10
2014,11,10,05,51,5.10
2014,11,10,05,52,5.10
2014,11,10,05,53,5.00
2014,11,10,05,54,5.00
2014,11,10,05,55,5.00
2014,11,10,05,56,5.00
2014,11,10,05,57,4.90
2014,11,10,05,58,4.90
2014,11,10,05,59,4.90
2014,11,10,06,00,4.90
2014,11,10,06,01,4.90
2014,11,10,06,02,5.00
2014,11,10,06,03,5.00
2014,11,10,06,04,5.10
2014,11,10,06,05,5.10
2014,11,10,06,06,5.20
2014,11,10,06,07,5.10
2014,11,10,06,08,5.10
2014,11,10,06,09,5.00
2014,11,10,06,10,5.00
2014,11,10,06,11,4.90
2014,11,10,06,12,4.90
2014,11,10,06,13,4.80
2014,11,10,06,14,4.80
2014,11,10,06,15,4.70
2014,11,10,06,16,4.60
2014,11,10,06,17,4.50
2014,11,10,06,18,4.50
2014,11,10,06,19,4.40
2014,11,10,06,20,4.30
2014,11,10,06,21,4.30
2014,11,10,06,22,4.30
2014,11,10,06,23,4.30
2014,11,10,06,24,4.30
2014,11,10,06,25,4.30
2014,11,10,06,26,4.30
2014,11,10,06,27,4.30
2014,11,10,06,28,4.30
2014,11,10,06,29,4.30
2014,11,10,06,30,4.30
2014,11,10,06,31,4.30
2014,11,10,06,32,4.30
2014,11,10,06,33,4.20
2014,11,10,06,34,4.20
2014,11,10,06,35,4.20
2014,11,10,06,36,4.20
2014,11,10,06,37,4.20
2014,11,10,06,38,4.20
2014,11,10,06,39,4.20
2014,11,10,06,40,4.20
2014,11,10,06,41,4.20
2014,11,10,06,42,4.20
2014,11,10,06,43,4.30
2014,11,10,06,44,4.30
2014,11,10,06,45,4.30
2014,11,10,06,46,4.30
2014,11,10,06,47,4.30
2014,11,10,06,48,4.40
2014,11,10,06,49,4.40
2014,11,10,06,50,4.50
2014,11,10,06,51,4.50
2014,11,10,06,52,4.60
2014,11,10,06,53,4.60
2014,11,10,06,54,4.70
2014,11,10,06,55,4.70
2014,11,10,06,56,4.70
2014,11,10,06,57,4.80
2014,11,10,06,58,4.80
2014,11,10,06,59,4.80
2014,11,10,07,00,4.90
2014,11,10,07,01,4.90
2014,11,10,07,02,5.00
2014,11,10,07,03,5.00
2014,11,10,07,04,5.10
2014,11,10,07,05,5.10
2014,11,10,07,06,5.10
2014,11,10,07,07,5.10
2014,11,10,07,08,5.10
2014,11,10,07,09,5.00
2014,11,10,07,10,4.90
2014,11,10,07,11,4.80
2014,11,10,07,12,4.70
2014,11,10,07,13,4.60
2014,11,10,07,14,4.60
2014,11,10,07,15,4.50
2014,11,10,07,16,4.50
2014,11,10,07,17,4.40
2014,11,10,07,18,4.40
2014,11,10,07,19,4.40
2014,11,10,07,20,4.40
2014,11,10,07,21,4.40
2014,11,10,07,22,4.50
2014,11,10,07,23,4.50
2014,11,10,07,24,4.50
2014,11,10,07,25,4.50
2014,11,10,07,26,4.50
2014,11,10,07,27,4.60
2014,11,10,07,28,4.50
2014,11,10,07,29,4.50
2014,11,10,07,30,4.50
2014,11,10,07,31,4.50
2014,11,10,07,32,4.50
2014,11,10,07,33,4.40
2014,11,10,07,34,4.40
2014,11,10,07,35,4.40
2014,11,10,07,36,4.40
2014,11,10,07,37,4.40
2014,11,10,07,38,4.40
2014,11,10,07,39,4.40
2014,11,10,07,40,4.30
2014,11,10,07,41,4.30
2014,11,10,07,42,4.20
2014,11,10,07,43,4.10
2014,11,10,07,44,4.10
2014,11,10,07,45,4.10
2014,11,10,07,46,4.10
2014,11,10,07,47,4.10
2014,11,10,07,48,4.10
2014,11,10,07,49,4.10
2014,11,10,07,50,4.10
2014,11,10,07,51,4.20
2014,11,10,07,52,4.20
2014,11,10,07,53,4.20
2014,11,10,07,54,4.30
2014,11,10,07,55,4.30
2014,11,10,07,56,4.30
2014,11,10,07,57,4.30
2014,11,10,07,58,4.30
2014,11,10,07,59,4.40
2014,11,10,08,00,4.40
2014,11,10,08,01,4.40
2014,11,10,08,02,4.40
2014,11,10,08,03,4.40
2014,11,10,08,04,4.50
2014,11,10,08,05,4.50
2014,11,10,08,06,4.50
2014,11,10,08,07,4.60
2014,11,10,08,08,4.60
2014,11,10,08,09,4.60
2014,11,10,08,10,4.60
2014,11,10,08,11,4.60
2014,11,10,08,12,4.70
2014,11,10,08,13,4.70
2014,11,10,08,14,4.80
2014,11,10,08,15,4.80
2014,11,10,08,16,4.90
2014,11,10,08,17,5.00
2014,11,10,08,18,5.10
2014,11,10,08,19,5.20
2014,11,10,08,20,5.30
2014,11,10,08,21,5.50
2014,11,10,08,22,5.50
2014,11,10,08,23,5.60
2014,11,10,08,24,5.70
2014,11,10,08,25,5.80
2014,11,10,08,26,5.90
2014,11,10,08,27,6.00
2014,11,10,08,28,6.10
2014,11,10,08,29,6.10
2014,11,10,08,30,6.20
2014,11,10,08,31,6.30
2014,11,10,08,32,6.30
2014,11,10,08,33,6.40
2014,11,10,08,34,6.50
2014,11,10,08,35,6.60
2014,11,10,08,36,6.60
2014,11,10,08,37,6.70
2014,11,10,08,38,6.80
2014,11,10,08,39,6.90
2014,11,10,08,40,7.00
2014,11,10,08,41,7.10
2014,11,10,08,42,7.20
2014,11,10,08,43,7.30
2014,11,10,08,44,7.40
2014,11,10,08,45,7.50
2014,11,10,08,46,7.60
2014,11,10,08,47,7.70
2014,11,10,08,48,7.80
2014,11,10,08,49,7.90
2014,11,10,08,50,7.90
2014,11,10,08,51,8.10
2014,11,10,08,52,8.10
2014,11,10,08,53,8.20
2014,11,10,08,54,8.30
2014,11,10,08,55,8.40
2014,11,10,08,56,8.50
2014,11,10,08,57,8.60
2014,11,10,08,58,8.70
2014,11,10,08,59,8.80
2014,11,10,09,00,8.90
2014,11,10,09,01,9.00
2014,11,10,09,02,9.00
2014,11,10,09,03,9.10
2014,11,10,09,04,9.10
2014,11,10,09,05,9.20
2014,11,10,09,06,9.30
2014,11,10,09,07,9.30
2014,11,10,09,08,9.30
2014,11,10,09,09,9.30
2014,11,10,09,10,9.40
2014,11,10,09,11,9.40
2014,11,10,09,12,9.40
2014,11,10,09,13,9.50
2014,11,10,09,14,9.50
2014,11,10,09,15,9.60
2014,11,10,09,16,9.60
2014,11,10,09,17,9.60
2014,11,10,09,18,9.60
2014,11,10,09,19,9.70
2014,11,10,09,20,9.70
2014,11,10,09,21,9.70
2014,11,10,09,22,9.70
2014,11,10,09,23,9.80
2014,11,10,09,24,9.80
2014,11,10,09,25,9.80
2014,11,10,09,26,9.80
2014,11,10,09,27,9.80
2014,11,10,09,28,9.90
2014,11,10,09,29,9.90
2014,11,10,09,30,9.90
2014,11,10,09,31,9.90
2014,11,10,09,32,9.90
2014,11,10,09,33,10.00
2014,11,10,09,34,10.00
2014,11,10,09,35,10.00
2014,11,10,09,36,10.10
2014,11,10,09,37,10.10
2014,11,10,09,38,10.10
2014,11,10,09,39,10.10
2014,11,10,09,40,10.10
2014,11,10,09,41,10.10
2014,11,10,09,42,10.20
2014,11,10,09,43,10.20
2014,11,10,09,44,10.20
2014,11,10,09,45,10.20
2014,11,10,09,46,10.20
2014,11,10,09,47,10.20
2014,11,10,09,48,10.20
2014,11,10,09,49,10.20
2014,11,10,09,50,10.30
2014,11,10,09,51,10.30
2014,11,10,09,52,10.30
2014,11,10,09,53,10.30
2014,11,10,09,54,10.30
2014,11,10,09,55,10.30
2014,11,10,09,56,10.30
2014,11,10,09,57,10.30
2014,11,10,09,58,10.40
2014,11,10,09,59,10.40
2014,11,10,10,00,10.30
2014,11,10,10,01,10.30
2014,11,10,10,02,10.30
2014,11,10,10,03,10.30
2014,11,10,10,04,10.30
2014,11,10,10,05,10.30
2014,11,10,10,06,10.30
2014,11,10,10,07,10.30
2014,11,10,10,08,10.30
2014,11,10,10,09,10.30
2014,11,10,10,10,10.30
2014,11,10,10,11,10.30
2014,11,10,10,12,10.30
2014,11,10,10,13,10.30
2014,11,10,10,14,10.30
2014,11,10,10,15,10.30
2014,11,10,10,16,10.30
2014,11,10,10,17,10.30
2014,11,10,10,18,10.30
2014,11,10,10,19,10.30
2014,11,10,10,20,10.30
2014,11,10,10,21,10.30
2014,11,10,10,22,10.40
2014,11,10,10,23,10.40
2014,11,10,10,24,10.40
2014,11,10,10,25,10.40
2014,11,10,10,26,10.40
2014,11,10,10,27,10.40
2014,11,10,10,28,10.40
2014,11,10,10,29,10.40
2014,11,10,10,30,10.40
2014,11,10,10,31,10.50
2014,11,10,10,32,10.50
2014,11,10,10,33,10.60
2014,11,10,10,34,10.60
2014,11,10,10,35,10.70
2014,11,10,10,36,10.70
2014,11,10,10,37,10.70
2014,11,10,10,38,10.70
2014,11,10,10,39,10.70
2014,11,10,10,40,10.70
2014,11,10,10,41,10.80
2014,11,10,10,42,10.80
2014,11,10,10,43,10.80
2014,11,10,10,44,10.80
2014,11,10,10,45,10.90
2014,11,10,10,46,10.90
2014,11,10,10,47,10.90
2014,11,10,10,48,10.90
2014,11,10,10,49,11.00
2014,11,10,10,50,11.00
2014,11,10,10,51,11.10
2014,11,10,10,52,11.10
2014,11,10,10,53,11.10
2014,11,10,10,54,11.10
2014,11,10,10,55,11.10
2014,11,10,10,56,11.10
2014,11,10,10,57,11.10
2014,11,10,10,58,11.10
2014,11,10,10,59,11.10
2014,11,10,11,00,11.10
2014,11,10,11,01,11.20
2014,11,10,11,02,11.20
2014,11,10,11,03,11.20
2014,11,10,11,04,11.20
2014,11,10,11,05,11.30
2014,11,10,11,06,11.30
2014,11,10,11,07,11.30
2014,11,10,11,08,11.30
2014,11,10,11,09,11.30
2014,11,10,11,10,11.30
2014,11,10,11,11,11.30
2014,11,10,11,12,11.30
2014,11,10,11,13,11.30
2014,11,10,11,14,11.30
2014,11,10,11,15,11.30
2014,11,10,11,16,11.30
2014,11,10,11,17,11.30
2014,11,10,11,18,11.30
2014,11,10,11,19,11.30
2014,11,10,11,20,11.30
2014,11,10,11,21,11.30
2014,11,10,11,22,11.30
2014,11,10,11,23,11.30
2014,11,10,11,24,11.20
2014,11,10,11,25,11.20
2014,11,10,11,26,11.20
2014,11,10,11,27,11.30
2014,11,10,11,28,11.30
2014,11,10,11,29,11.30
2014,11,10,11,30,11.40
2014,11,10,11,31,11.30
2014,11,10,11,32,11.30
2014,11,10,11,33,11.30
2014,11,10,11,34,11.30
2014,11,10,11,35,11.40
2014,11,10,11,36,11.40
2014,11,10,11,37,11.40
2014,11,10,11,38,11.30
2014,11,10,11,39,11.30
2014,11,10,11,40,11.30
2014,11,10,11,41,11.30
2014,11,10,11,42,11.30
2014,11,10,11,43,11.30
2014,11,10,11,44,11.30
2014,11,10,11,45,11.40
2014,11,10,11,46,11.40
2014,11,10,11,47,11.40
2014,11,10,11,48,11.40
2014,11,10,11,49,11.40
2014,11,10,11,50,11.40
2014,11,10,11,51,11.40
2014,11,10,11,52,11.40
2014,11,10,11,53,11.40
2014,11,10,11,54,11.40
2014,11,10,11,55,11.30
2014,11,10,11,56,11.30
2014,11,10,11,57,11.30
2014,11,10,11,58,11.30
2014,11,10,11,59,11.30
2014,11,10,12,00,11.40
2014,11,10,12,01,11.40
2014,11,10,12,02,11.40
2014,11,10,12,03,11.40
2014,11,10,12,04,11.40
2014,11,10,12,05,11.40
2014,11,10,12,06,11.40
2014,11,10,12,07,11.40
2014,11,10,12,08,11.40
2014,11,10,12,09,11.40
2014,11,10,12,10,11.30
2014,11,10,12,11,11.30
2014,11,10,12,12,11.30
2014,11,10,12,13,11.30
2014,11,10,12,14,11.30
2014,11,10,12,15,11.30
2014,11,10,12,16,11.30
2014,11,10,12,17,11.30
2014,11,10,12,18,11.40
2014,11,10,12,19,11.40
2014,11,10,12,20,11.40
2014,11,10,12,21,11.40
2014,11,10,12,22,11.50
2014,11,10,12,23,11.50
2014,11,10,12,24,11.50
2014,11,10,12,25,11.60
2014,11,10,12,26,11.60
2014,11,10,12,27,11.60
2014,11,10,12,28,11.70
2014,11,10,12,29,11.70
2014,11,10,12,30,11.70
2014,11,10,12,31,11.70
2014,11,10,12,32,11.70
2014,11,10,12,33,11.70
2014,11,10,12,34,11.80
2014,11,10,12,35,11.80
2014,11,10,12,36,11.80
2014,11,10,12,37,11.80
2014,11,10,12,38,11.80
2014,11,10,12,39,11.90
2014,11,10,12,40,11.90
2014,11,10,12,41,11.90
2014,11,10,12,42,11.90
2014,11,10,12,43,11.90
2014,11,10,12,44,11.90
2014,11,10,12,45,11.90
2014,11,10,12,46,11.80
2014,11,10,12,47,11.80
2014,11,10,12,48,11.80
2014,11,10,12,49,11.80
2014,11,10,12,50,11.80
2014,11,10,12,51,11.80
2014,11,10,12,52,11.80
2014,11,10,12,53,11.90
2014,11,10,12,54,11.90
2014,11,10,12,55,11.90
2014,11,10,12,56,11.90
2014,11,10,12,57,11.90
2014,11,10,12,58,11.90
2014,11,10,12,59,11.90
2014,11,10,13,00,11.90
2014,11,10,13,01,11.90
2014,11,10,13,02,11.90
2014,11,10,13,03,11.90
2014,11,10,13,04,11.90
2014,11,10,13,05,11.90
2014,11,10,13,06,11.90
2014,11,10,13,07,11.90
2014,11,10,13,08,11.90
2014,11,10,13,09,11.90
2014,11,10,13,10,12.00
2014,11,10,13,11,12.00
2014,11,10,13,12,12.00
2014,11,10,13,13,12.00
2014,11,10,13,14,12.00
2014,11,10,13,15,12.10
2014,11,10,13,16,12.10
2014,11,10,13,17,12.10
2014,11,10,13,18,12.20
2014,11,10,13,19,12.20
2014,11,10,13,20,12.20
2014,11,10,13,21,12.20
2014,11,10,13,22,12.20
2014,11,10,13,23,12.30
2014,11,10,13,24,12.30
2014,11,10,13,25,12.40
2014,11,10,13,26,12.40
2014,11,10,13,27,12.50
2014,11,10,13,28,12.60
2014,11,10,13,29,12.60
2014,11,10,13,30,12.60
2014,11,10,13,31,12.60
2014,11,10,13,32,12.70
2014,11,10,13,33,12.70
2014,11,10,13,34,12.70
2014,11,10,13,35,12.70
2014,11,10,13,36,12.70
2014,11,10,13,37,12.70
2014,11,10,13,38,12.70
2014,11,10,13,39,12.70
2014,11,10,13,40,12.70
2014,11,10,13,41,12.70
2014,11,10,13,42,12.70
2014,11,10,13,43,12.70
2014,11,10,13,44,12.70
2014,11,10,13,45,12.70
2014,11,10,13,46,12.70
2014,11,10,13,47,12.70
2014,11,10,13,48,12.70
2014,11,10,13,49,12.70
2014,11,10,13,50,12.70
2014,11,10,13,51,12.70
2014,11,10,13,52,12.70
2014,11,10,13,53,12.70
2014,11,10,13,54,12.70
2014,11,10,13,55,12.70
2014,11,10,13,56,12.70
2014,11,10,13,57,12.70
2014,11,10,13,58,12.70
2014,11,10,13,59,12.70
2014,11,10,14,00,12.70
2014,11,10,14,01,12.70
2014,11,10,14,02,12.70
2014,11,10,14,03,12.70
2014,11,10,14,04,12.70
2014,11,10,14,05,12.60
2014,11,10,14,06,12.60
2014,11,10,14,07,12.60
2014,11,10,14,08,12.60
2014,11,10,14,09,12.50
2014,11,10,14,10,12.50
2014,11,10,14,11,12.60
2014,11,10,14,12,12.60
2014,11,10,14,13,12.60
2014,11,10,14,14,12.60
2014,11,10,14,15,12.60
2014,11,10,14,16,12.70
2014,11,10,14,17,12.70
2014,11,10,14,18,12.70
2014,11,10,14,19,12.70
2014,11,10,14,20,12.70
2014,11,10,14,21,12.70
2014,11,10,14,22,12.70
2014,11,10,14,23,12.70
2014,11,10,14,24,12.60
2014,11,10,14,25,12.60
2014,11,10,14,26,12.60
2014,11,10,14,27,12.60
2014,11,10,14,28,12.60
2014,11,10,14,29,12.60
2014,11,10,14,30,12.60
2014,11,10,14,31,12.60
2014,11,10,14,32,12.50
2014,11,10,14,33,12.50
2014,11,10,14,34,12.50
2014,11,10,14,35,12.40
2014,11,10,14,36,12.40
2014,11,10,14,37,12.40
2014,11,10,14,38,12.40
2014,11,10,14,39,12.40
2014,11,10,14,40,12.40
2014,11,10,14,41,12.30
2014,11,10,14,42,12.30
2014,11,10,14,43,12.30
2014,11,10,14,44,12.30
2014,11,10,14,45,12.20
2014,11,10,14,46,12.30
2014,11,10,14,47,12.20
2014,11,10,14,48,12.20
2014,11,10,14,49,12.20
2014,11,10,14,50,12.20
2014,11,10,14,51,12.30
2014,11,10,14,52,12.30
2014,11,10,14,53,12.20
2014,11,10,14,54,12.20
2014,11,10,14,55,12.30
2014,11,10,14,56,12.30
2014,11,10,14,57,12.30
2014,11,10,14,58,12.30
2014,11,10,14,59,12.30
2014,11,10,15,00,12.30
2014,11,10,15,01,12.30
2014,11,10,15,02,12.40
2014,11,10,15,03,12.40
2014,11,10,15,04,12.40
2014,11,10,15,05,12.40
2014,11,10,15,06,12.40
2014,11,10,15,07,12.40
2014,11,10,15,08,12.30
2014,11,10,15,09,12.30
2014,11,10,15,10,12.30
2014,11,10,15,11,12.30
2014,11,10,15,12,12.30
2014,11,10,15,13,12.30
2014,11,10,15,14,12.20
2014,11,10,15,15,12.20
2014,11,10,15,16,12.20
2014,11,10,15,17,12.20
2014,11,10,15,18,12.20
2014,11,10,15,19,12.20
2014,11,10,15,20,12.20
2014,11,10,15,21,12.20
2014,11,10,15,22,12.20
2014,11,10,15,23,12.20
2014,11,10,15,24,12.20
2014,11,10,15,25,12.20
2014,11,10,15,26,12.20
2014,11,10,15,27,12.10
2014,11,10,15,28,12.10
2014,11,10,15,29,12.20
2014,11,10,15,30,12.20
2014,11,10,15,31,12.20
2014,11,10,15,32,12.20
2014,11,10,15,33,12.30
2014,11,10,15,34,12.30
2014,11,10,15,35,12.30
2014,11,10,15,36,12.30
2014,11,10,15,37,12.30
2014,11,10,15,38,12.30
2014,11,10,15,39,12.30
2014,11,10,15,40,12.30
2014,11,10,15,41,12.30
2014,11,10,15,42,12.40
2014,11,10,15,43,12.40
2014,11,10,15,44,12.40
2014,11,10,15,45,12.40
2014,11,10,15,46,12.40
2014,11,10,15,47,12.40
2014,11,10,15,48,12.40
2014,11,10,15,49,12.40
2014,11,10,15,50,12.40
2014,11,10,15,51,12.40
2014,11,10,15,52,12.50
2014,11,10,15,53,12.50
2014,11,10,15,54,12.60
2014,11,10,15,55,12.60
2014,11,10,15,56,12.70
2014,11,10,15,57,12.70
2014,11,10,15,58,12.70
2014,11,10,15,59,12.70
2014,11,10,16,00,12.70
2014,11,10,16,01,12.70
2014,11,10,16,02,12.60
2014,11,10,16,03,12.60
2014,11,10,16,04,12.60
2014,11,10,16,05,12.50
2014,11,10,16,06,12.50
2014,11,10,16,07,12.50
2014,11,10,16,08,12.40
2014,11,10,16,09,12.40
2014,11,10,16,10,12.40
2014,11,10,16,11,12.30
2014,11,10,16,12,12.30
2014,11,10,16,13,12.30
2014,11,10,16,14,12.20
2014,11,10,16,15,12.20
2014,11,10,16,16,12.10
2014,11,10,16,17,12.10
2014,11,10,16,18,12.00
2014,11,10,16,19,11.90
2014,11,10,16,20,11.80
2014,11,10,16,21,11.80
2014,11,10,16,22,11.70
2014,11,10,16,23,11.60
2014,11,10,16,24,11.60
2014,11,10,16,25,11.50
2014,11,10,16,26,11.40
2014,11,10,16,27,11.40
2014,11,10,16,28,11.30
2014,11,10,16,29,11.30
2014,11,10,16,30,11.20
2014,11,10,16,31,11.20
2014,11,10,16,32,11.20
2014,11,10,16,33,11.10
2014,11,10,16,34,11.10
2014,11,10,16,35,11.00
2014,11,10,16,36,11.00
2014,11,10,16,37,10.90
2014,11,10,16,38,10.80
2014,11,10,16,39,10.80
2014,11,10,16,40,10.80
2014,11,10,16,41,10.70
2014,11,10,16,42,10.70
2014,11,10,16,43,10.60
2014,11,10,16,44,10.50
2014,11,10,16,45,10.50
2014,11,10,16,46,10.40
2014,11,10,16,47,10.40
2014,11,10,16,48,10.30
2014,11,10,16,49,10.30
2014,11,10,16,50,10.20
2014,11,10,16,51,10.10
2014,11,10,16,52,10.10
2014,11,10,16,53,10.00
2014,11,10,16,54,10.00
2014,11,10,16,55,9.90
2014,11,10,16,56,9.90
2014,11,10,16,57,9.80
2014,11,10,16,58,9.80
2014,11,10,16,59,9.70
2014,11,10,17,00,9.70
2014,11,10,17,01,9.60
2014,11,10,17,02,9.60
2014,11,10,17,03,9.50
2014,11,10,17,04,9.50
2014,11,10,17,05,9.40
2014,11,10,17,06,9.30
2014,11,10,17,07,9.30
2014,11,10,17,08,9.20
2014,11,10,17,09,9.20
2014,11,10,17,10,9.10
2014,11,10,17,11,9.10
2014,11,10,17,12,9.00
2014,11,10,17,13,8.90
2014,11,10,17,14,8.90
2014,11,10,17,15,8.80
2014,11,10,17,16,8.80
2014,11,10,17,17,8.80
2014,11,10,17,18,8.70
2014,11,10,17,19,8.70
2014,11,10,17,20,8.60
2014,11,10,17,21,8.60
2014,11,10,17,22,8.50
2014,11,10,17,23,8.50
2014,11,10,17,24,8.40
2014,11,10,17,25,8.40
2014,11,10,17,26,8.40
2014,11,10,17,27,8.30
2014,11,10,17,28,8.30
2014,11,10,17,29,8.30
2014,11,10,17,30,8.20
2014,11,10,17,31,8.20
2014,11,10,17,32,8.20
2014,11,10,17,33,8.10
2014,11,10,17,34,8.10
2014,11,10,17,35,8.10
2014,11,10,17,36,8.10
2014,11,10,17,37,8.00
2014,11,10,17,38,8.00
2014,11,10,17,39,7.90
2014,11,10,17,40,7.90
2014,11,10,17,41,7.90
2014,11,10,17,42,7.80
2014,11,10,17,43,7.80
2014,11,10,17,44,7.80
2014,11,10,17,45,7.70
2014,11,10,17,46,7.70